Location: Florence
(33.9745°N, 118.2481°W)
Time: 20:49:26
(UTC+00:00)

Hubble Space Telescope - Pass Details

Date: 23 March 2023
Orbit: 525 x 528 km, 28.5° (Epoch: 05 June)

Event Time Altitude Azimuth Distance (km) Brightness Sun altitude
Exits shadow 12:25:50 16° 187° (S) 1,409 2.7 -18.7°
Drops below altitude 10° 12:27:44 10° 159° (SSE) 1,747 3.4 -18.3°
Sets 12:30:36 0° 138° (SE) 2,632 4.7 -17.7°
